Precipitable_Water
0.58 0.56 0.55 0.54 0.54 0.53 0.52 0.52 0.50 0.51 0.52 0.51 0.48 0.47 0.46 0.42 0.36 0.32 0.18 0.26 0.35 0.42 0.50 0.49 0.73 0.75 0.97 1.03 1.43 1.83 1.16 1.06 1.17 1.16 1.13 1.24 1.12 1.04 1.19 1.03 1.15 1.19 1.04 1.14 1.26
0.59 0.57 0.56 0.55 0.54 0.52 0.53 0.53 0.51 0.50 0.49 0.51 0.53 0.50 0.46 0.47 0.32 0.20 0.24 0.37 0.35 0.34 0.34 0.51 0.58 0.74 0.83 1.06 1.34 1.42 1.01 1.09 1.37 1.28 1.08 1.25 1.17 1.09 1.15 0.94 0.98 1.12 1.19 1.23 1.26
0.59 0.58 0.56 0.54 0.53 0.52 0.54 0.53 0.51 0.52 0.52 0.49 0.49 0.54 0.49 0.49 0.36 0.38 0.40 0.36 0.31 0.27 0.30 0.56 0.60 0.62 0.74 1.16 1.44 1.30 1.07 1.22 1.19 1.29 1.24 1.30 1.30 1.27 1.17 0.96 1.15 0.96 1.07 1.16 1.20
0.61 0.59 0.57 0.56 0.53 0.52 0.55 0.55 0.51 0.51 0.51 0.51 0.50 0.50 0.53 0.47 0.41 0.67 0.60 0.47 0.31 0.24 0.36 0.52 0.51 0.60 0.69 1.02 1.26 1.14 1.24 1.26 1.22 1.21 1.24 1.30 1.36 1.19 1.25 1.23 1.35 1.23 1.15 1.13 1.13
0.66 0.64 0.62 0.59 0.56 0.53 0.53 0.55 0.53 0.51 0.49 0.50 0.50 0.49 0.41 0.45 0.49 0.72 0.51 0.37 0.23 0.24 0.32 0.44 0.56 0.64 0.68 0.97 1.16 1.11 1.10 1.14 1.14 1.10 1.17 1.29 1.22 1.19 1.17 1.32 1.32 1.20 1.15 1.08 1.11
0.74 0.69 0.67 0.64 0.59 0.55 0.51 0.52 0.51 0.49 0.51 0.52 0.50 0.50 0.36 0.36 0.68 0.67 0.49 0.29 0.21 0.26 0.34 0.44 0.57 0.71 0.86 0.94 0.95 1.16 1.12 1.05 1.07 1.04 1.11 1.11 1.26 1.31 1.43 1.41 1.32 1.07 1.04 1.16 1.19
0.79 0.75 0.72 0.69 0.62 0.55 0.49 0.50 0.47 0.50 0.57 0.54 0.49 0.44 0.33 0.45 0.68 0.64 0.37 0.29 0.29 0.26 0.29 0.38 0.47 0.58 0.86 0.81 0.91 0.91 1.05 1.13 1.11 1.16 1.16 1.20 1.13 1.16 1.49 1.36 1.29 1.03 1.09 1.17 1.19
0.77 0.78 0.77 0.72 0.64 0.56 0.50 0.49 0.50 0.57 0.55 0.51 0.47 0.43 0.41 0.57 0.58 0.48 0.43 0.39 0.35 0.31 0.28 0.34 0.40 0.53 0.75 0.84 0.78 0.67 0.91 0.90 1.26 1.29 1.22 1.13 0.85 1.19 1.38 1.40 1.11 1.26 1.10 1.29 1.28
0.64 0.71 0.77 0.77 0.66 0.56 0.50 0.51 0.56 0.61 0.57 0.54 0.50 0.60 0.49 0.57 0.40 0.49 0.50 0.44 0.44 0.29 0.29 0.31 0.35 0.50 0.65 0.59 0.50 0.56 0.60 0.75 0.92 1.23 1.14 0.98 0.84 1.24 1.25 1.40 1.32 1.30 1.18 1.14 1.21
0.59 0.59 0.67 0.74 0.68 0.55 0.55 0.62 0.70 0.60 0.67 0.70 0.70 0.56 0.65 0.39 0.37 0.39 0.52 0.54 0.47 0.30 0.24 0.20 0.17 0.37 0.47 0.42 0.37 0.42 0.59 0.82 0.80 1.08 1.12 0.81 0.87 1.14 1.18 1.35 1.32 1.26 1.31 1.31 1.11
0.64 0.58 0.56 0.67 0.67 0.55 0.60 0.60 0.58 0.63 0.52 0.40 0.55 0.46 0.44 0.46 0.46 0.35 0.39 0.38 0.41 0.29 0.19 0.19 0.13 0.15 0.24 0.49 0.56 0.55 0.63 0.69 0.91 1.08 0.89 0.74 0.72 0.88 1.03 1.17 1.17 1.16 1.35 1.34 1.16
0.62 0.61 0.55 0.59 0.67 0.53 0.60 0.47 0.52 0.52 0.34 0.47 0.48 0.52 0.47 0.44 0.34 0.36 0.43 0.28 0.29 0.25 0.21 0.19 0.15 0.21 0.34 0.44 0.48 0.49 0.48 0.65 0.86 0.96 0.82 0.77 0.67 0.87 0.96 0.94 1.09 1.11 1.19 1.38 1.40
0.66 0.60 0.57 0.52 0.61 0.41 0.42 0.44 0.55 0.53 0.40 0.46 0.53 0.39 0.38 0.35 0.35 0.36 0.38 0.31 0.28 0.24 0.21 0.18 0.21 0.24 0.26 0.29 0.33 0.44 0.44 0.47 0.63 0.81 0.79 0.63 0.52 0.74 0.92 1.12 1.09 1.14 1.16 1.38 1.45
0.70 0.64 0.58 0.51 0.45 0.52 0.46 0.57 0.57 0.55 0.41 0.45 0.42 0.42 0.41 0.40 0.35 0.41 0.39 0.35 0.34 0.28 0.27 0.22 0.26 0.26 0.24 0.27 0.32 0.37 0.41 0.43 0.63 0.56 0.40 0.63 0.34 0.59 0.86 0.98 1.04 1.03 1.04 1.24 1.40
0.77 0.69 0.61 0.58 0.48 0.47 0.55 0.59 0.51 0.54 0.27 0.47 0.42 0.54 0.46 0.40 0.39 0.40 0.40 0.35 0.33 0.32 0.34 0.29 0.27 0.29 0.28 0.33 0.41 0.32 0.39 0.41 0.44 0.41 0.37 0.43 0.46 0.51 0.74 0.84 0.98 1.05 1.04 1.17 1.30
0.84 0.77 0.67 0.54 0.49 0.55 0.65 0.58 0.44 0.31 0.26 0.38 0.43 0.43 0.38 0.40 0.40 0.38 0.33 0.38 0.40 0.35 0.35 0.32 0.37 0.35 0.32 0.35 0.36 0.36 0.35 0.34 0.35 0.35 0.30 0.43 0.49 0.48 0.68 0.74 0.98 1.14 1.10 1.09 1.14
0.97 0.85 0.71 0.62 0.34 0.61 0.57 0.42 0.24 0.21 0.43 0.38 0.39 0.37 0.34 0.36 0.34 0.35 0.28 0.25 0.28 0.28 0.26 0.30 0.31 0.34 0.33 0.27 0.31 0.29 0.28 0.23 0.22 0.29 0.33 0.53 0.52 0.64 0.81 0.99 1.06 1.09 1.13 1.14 1.24
0.96 0.98 0.83 0.61 0.52 0.61 0.57 0.30 0.19 0.24 0.37 0.45 0.39 0.35 0.31 0.38 0.37 0.36 0.33 0.28 0.33 0.33 0.32 0.31 0.27 0.31 0.35 0.29 0.28 0.28 0.24 0.20 0.22 0.30 0.34 0.52 0.50 0.66 0.98 0.99 1.15 1.15 1.07 1.18 1.24
0.85 0.80 0.85 0.72 0.64 0.62 0.47 0.22 0.19 0.30 0.44 0.46 0.37 0.32 0.31 0.36 0.39 0.38 0.36 0.37 0.40 0.39 0.32 0.37 0.34 0.36 0.36 0.32 0.28 0.25 0.29 0.40 0.31 0.33 0.31 0.43 0.65 0.76 0.82 0.92 0.96 0.99 1.06 1.13 1.30
0.75 0.73 0.70 0.78 0.82 0.57 0.40 0.23 0.21 0.35 0.46 0.46 0.38 0.34 0.28 0.33 0.36 0.39 0.38 0.42 0.44 0.47 0.44 0.43 0.33 0.37 0.37 0.40 0.38 0.31 0.38 0.39 0.42 0.28 0.28 0.49 0.59 0.63 0.74 0.86 0.92 1.00 1.05 1.25 1.28
0.75 0.65 0.77 0.78 0.87 0.52 0.29 0.26 0.22 0.34 0.43 0.41 0.42 0.35 0.31 0.35 0.39 0.38 0.36 0.43 0.47 0.48 0.48 0.45 0.41 0.41 0.41 0.38 0.39 0.36 0.34 0.37 0.43 0.45 0.36 0.39 0.52 0.74 0.76 0.79 0.86 0.93 1.14 1.22 1.28
0.73 0.57 0.82 0.84 0.59 0.54 0.37 0.34 0.31 0.31 0.43 0.42 0.47 0.39 0.33 0.39 0.40 0.40 0.42 0.47 0.52 0.53 0.43 0.42 0.38 0.34 0.39 0.47 0.49 0.48 0.43 0.47 0.38 0.33 0.46 0.46 0.50 0.82 0.87 0.95 0.96 0.92 0.95 1.11 1.14
0.64 0.66 0.89 0.80 0.47 0.48 0.45 0.37 0.34 0.34 0.42 0.42 0.47 0.43 0.37 0.33 0.32 0.35 0.43 0.52 0.54 0.50 0.45 0.42 0.34 0.29 0.33 0.40 0.41 0.42 0.44 0.52 0.51 0.52 0.48 0.41 0.51 0.83 0.84 0.85 0.96 0.94 0.99 0.98 0.99
0.68 0.63 0.75 0.79 0.72 0.60 0.47 0.38 0.31 0.40 0.42 0.43 0.45 0.52 0.36 0.32 0.34 0.33 0.43 0.47 0.47 0.47 0.46 0.42 0.35 0.34 0.28 0.29 0.31 0.30 0.36 0.42 0.47 0.41 0.42 0.47 0.55 0.70 0.78 0.93 1.06 1.16 1.13 1.02 0.94
0.73 0.70 0.79 0.65 0.68 0.70 0.65 0.51 0.39 0.35 0.48 0.50 0.50 0.50 0.36 0.31 0.31 0.33 0.42 0.43 0.42 0.42 0.40 0.35 0.25 0.30 0.32 0.33 0.37 0.35 0.33 0.32 0.32 0.39 0.40 0.45 0.47 0.59 0.70 0.80 0.91 1.18 1.25 1.13 1.06
0.63 0.66 0.79 0.75 0.75 0.71 0.67 0.58 0.49 0.42 0.49 0.48 0.50 0.55 0.42 0.34 0.34 0.39 0.43 0.43 0.42 0.45 0.44 0.46 0.25 0.30 0.32 0.35 0.35 0.33 0.34 0.33 0.33 0.34 0.44 0.43 0.41 0.65 0.76 0.83 0.83 0.94 1.09 1.11 1.26
0.82 0.90 0.77 0.65 0.67 0.70 0.66 0.65 0.57 0.63 0.60 0.60 0.55 0.56 0.48 0.38 0.41 0.46 0.59 0.58 0.55 0.49 0.49 0.49 0.46 0.40 0.34 0.42 0.39 0.31 0.41 0.44 0.44 0.48 0.46 0.36 0.43 0.65 0.66 0.75 0.82 0.92 0.98 1.10 1.16
Wind_Speed
8 8 8 7 7 7 6 6 6 6 5 5 5 5 6 6 7 7 7 7 6 7 5 4 4 4 4 4 3 4 3 6 9 2 3 3 4 7 8 8 5 5 12 13 15
9 8 8 8 8 7 7 7 7 7 7 6 6 6 6 6 6 8 8 7 7 6 6 6 5 5 3 5 3 6 8 5 7 3 2 2 3 4 6 7 8 11 13 13 13
9 9 9 9 8 8 8 8 8 8 8 7 7 6 6 5 5 5 7 8 7 7 7 6 6 5 7 4 4 3 2 3 3 4 3 4 3 2 9 10 11 14 11 11 12
9 9 9 9 9 9 9 9 9 9 9 8 8 7 6 4 1 3 5 7 7 7 7 6 5 4 4 1 6 1 2 3 4 2 1 6 4 5 5 7 9 10 8 9 10
10 10 10 10 10 10 10 10 11 11 10 10 8 7 6 6 8 5 4 7 8 8 8 8 6 4 5 2 1 3 2 1 2 2 2 8 6 5 0 5 9 9 7 9 9
10 11 11 11 12 12 12 12 12 12 12 10 9 7 7 7 6 7 7 8 9 9 8 9 8 7 9 3 5 5 2 3 3 2 3 7 6 5 3 3 8 7 9 9 9
11 11 12 13 13 13 13 13 13 13 11 10 8 7 9 10 6 6 8 9 10 12 10 9 10 8 6 6 6 5 3 3 2 1 1 6 1 4 6 2 3 7 10 9 7
12 13 13 14 14 14 13 14 13 12 10 7 5 6 9 9 10 9 10 10 11 13 13 11 9 10 8 7 7 7 4 4 8 9 2 4 2 5 9 5 5 4 11 9 8
14 14 14 15 15 15 14 14 12 10 8 6 5 6 9 9 11 12 12 12 10 11 12 11 8 9 9 7 7 8 7 4 4 6 1 2 2 6 6 6 5 3 10 11 12
16 16 16 15 15 15 14 12 9 9 7 7 8 9 9 9 8 12 13 12 12 11 11 10 9 11 9 8 9 7 7 6 4 5 3 3 4 6 9 8 9 9 9 8 10
18 17 17 17 16 15 12 9 10 8 9 10 8 7 8 4 6 10 13 13 13 11 12 12 10 12 14 13 14 13 5 4 7 7 5 6 5 7 10 9 10 13 10 12 12
19 19 19 18 17 15 11 9 10 12 14 13 13 14 9 7 8 10 11 12 13 13 13 11 12 14 15 16 14 11 8 7 6 7 7 6 8 9 11 13 12 14 15 12 13
21 21 20 19 18 12 12 13 13 14 13 14 9 8 6 8 10 9 9 13 13 13 13 13 13 13 15 14 13 8 7 7 8 6 6 6 7 7 12 12 12 13 13 16 14
23 22 21 21 14 12 11 13 12 13 11 8 7 8 6 6 6 10 8 12 11 14 13 14 13 13 15 12 12 9 8 11 8 5 6 5 8 9 10 13 13 13 15 18 17
25 24 22 19 17 13 13 13 12 10 9 1 6 3 4 5 5 7 7 11 14 12 10 12 12 10 10 11 9 12 9 3 5 7 8 8 6 8 9 12 13 13 14 18 20
28 26 24 19 18 18 16 15 12 8 10 7 4 5 6 7 7 4 5 10 10 12 12 14 11 9 11 14 13 11 8 7 7 8 7 11 8 9 9 15 13 13 13 17 22
31 30 27 23 19 17 17 13 11 10 7 8 7 5 7 8 8 5 5 8 8 6 9 10 12 8 10 12 12 8 7 7 5 6 8 9 8 7 4 6 14 14 14 15 20
31 32 29 27 24 21 16 14 14 13 12 5 8 7 9 10 10 8 8 8 10 12 9 10 10 13 10 12 9 10 11 10 7 4 10 12 6 7 4 4 7 12 13 13 17
32 26 25 25 25 24 20 19 16 14 13 9 9 9 9 9 6 9 9 11 12 10 5 3 6 13 11 7 12 11 12 12 12 13 10 7 6 4 4 4 8 13 13 16 14
27 24 22 23 22 23 23 22 19 20 17 14 15 11 12 11 9 8 9 9 6 8 5 4 3 8 9 7 9 11 11 7 8 8 10 5 7 8 8 7 6 6 8 13 16
22 18 17 17 20 22 25 23 22 23 20 14 13 12 12 13 14 11 9 12 8 6 7 9 6 6 7 6 8 8 11 11 11 10 9 9 10 11 12 10 7 8 9 10 12
17 13 11 14 17 20 25 23 22 26 24 21 21 15 13 14 9 10 6 3 8 7 4 6 9 9 9 9 10 10 12 10 9 13 11 10 13 11 11 9 9 10 9 13 14
16 15 15 16 18 21 23 25 27 27 25 20 18 19 15 12 12 12 12 8 7 6 7 7 8 9 10 9 6 8 8 10 12 11 12 10 14 12 14 14 13 12 10 10 12
13 11 11 15 17 21 22 22 24 25 26 24 21 20 18 13 14 12 11 11 10 10 10 11 12 10 11 11 13 13 13 13 11 10 13 13 13 11 12 9 11 13 12 13 15
13 12 12 13 14 15 18 20 23 24 21 20 19 20 20 16 15 16 14 11 11 11 9 9 12 14 14 15 16 15 16 16 16 14 14 16 17 18 18 15 14 12 14 15 14
13 13 15 18 17 16 16 16 20 22 22 19 20 22 21 17 17 15 16 15 12 12 10 9 10 11 13 15 16 17 18 18 17 14 12 14 17 18 18 18 16 18 17 14 14
14 15 14 16 16 18 19 16 16 16 19 19 19 22 21 21 19 19 13 14 15 14 13 10 9 9 13 13 14 13 10 8 10 10 14 17 20 19 21 20 19 17 16 13 14
Wind_Direction
24 21 18 16 12 8 3 357 349 340 332 322 310 300 292 285 276 248 238 232 225 233 232 223 223 224 234 256 255 174 311 239 170 64 4 86 64 80 124 114 91 84 123 116 128
16 11 5 359 354 350 346 342 337 333 325 317 309 304 297 293 272 249 233 228 225 225 218 208 219 213 229 263 281 318 36 136 171 221 50 98 57 51 124 113 106 115 125 126 127
11 9 6 3 359 353 348 340 331 325 319 312 302 295 296 294 268 246 220 220 221 218 210 217 231 239 248 287 288 315 36 135 203 212 296 312 143 52 106 90 123 123 127 137 136
7 4 1 357 354 348 343 339 334 327 319 309 299 289 283 253 265 239 224 218 216 209 205 206 214 227 268 260 280 307 136 160 141 179 27 140 153 140 111 127 136 130 130 147 151
2 358 355 352 349 345 340 335 330 324 315 305 295 284 266 241 252 244 239 211 208 203 206 208 209 240 250 229 111 214 169 124 150 124 83 142 160 141 94 143 145 137 142 149 159
355 353 351 347 344 340 336 333 329 323 314 302 288 274 250 252 246 247 238 216 212 206 212 216 222 262 287 226 197 182 221 152 128 82 136 158 160 163 122 164 174 153 156 148 158
347 345 343 341 339 336 332 331 329 326 319 305 283 265 248 252 260 241 218 215 214 213 220 229 251 261 268 264 200 200 149 131 95 112 125 154 135 231 203 188 180 171 165 158 161
338 337 335 335 334 332 329 328 328 328 326 315 291 264 258 255 251 236 228 228 231 228 234 245 258 242 240 254 228 209 216 206 38 317 221 204 264 311 212 202 231 223 168 174 166
333 330 328 328 328 328 326 325 325 326 330 328 307 286 278 258 249 234 229 225 228 227 231 241 245 229 240 248 241 237 231 215 247 247 184 232 250 225 213 218 221 207 191 183 179
328 326 323 322 323 323 323 322 328 326 321 316 302 300 281 260 240 231 230 234 224 226 226 232 235 224 234 233 224 254 247 214 207 225 208 205 225 198 203 196 238 207 196 190 182
322 320 318 315 315 316 318 323 329 322 305 294 303 296 287 247 245 243 227 227 230 229 223 223 222 224 230 230 246 267 232 197 214 214 210 237 223 221 199 217 231 225 211 204 206
314 314 313 310 307 303 297 305 313 313 311 288 281 272 281 256 246 238 220 222 223 226 223 227 227 229 228 237 243 253 252 219 215 214 261 256 241 231 220 221 217 221 223 210 204
308 308 308 306 301 290 280 286 305 313 309 300 262 273 255 261 251 222 224 217 224 223 224 219 232 226 235 241 243 245 247 255 195 228 266 285 287 239 232 229 222 225 225 210 209
302 302 303 304 285 287 282 292 294 309 308 293 250 273 232 244 267 187 241 206 217 225 227 227 241 249 222 243 229 236 234 247 211 234 264 246 279 276 225 220 222 225 223 222 217
297 296 295 292 278 268 277 289 293 299 302 199 222 229 244 227 182 239 215 224 239 231 235 228 231 224 224 232 230 222 256 246 243 269 280 262 284 267 218 217 221 219 224 225 220
291 289 288 278 270 261 273 274 282 273 275 238 191 255 224 238 230 200 236 229 228 244 249 229 252 218 226 233 232 239 254 259 262 264 273 258 244 292 240 226 217 223 222 232 220
288 283 278 270 261 258 267 255 250 251 281 210 212 229 222 223 203 203 210 201 209 205 220 221 227 231 220 221 226 230 246 255 264 244 250 265 293 258 292 255 220 224 242 242 219
294 285 270 261 256 250 248 240 244 244 239 243 215 217 226 219 205 210 201 208 217 224 242 227 241 218 215 225 215 219 211 221 236 248 276 283 250 265 260 262 228 233 253 230 228
299 284 268 257 247 236 237 235 232 230 236 283 221 229 236 227 233 209 225 233 226 217 230 268 291 188 204 215 222 238 233 244 255 266 276 255 254 276 261 283 259 254 246 238 224
299 287 270 248 234 230 235 238 236 232 248 271 282 228 242 222 210 237 235 231 212 195 207 241 196 186 198 208 226 221 242 264 262 257 260 253 246 241 266 281 299 305 269 237 230
300 287 276 226 225 233 237 236 238 239 245 248 267 237 234 235 222 228 240 224 204 212 237 233 228 259 190 220 236 243 247 249 247 248 244 245 256 251 248 268 268 275 274 236 221
301 278 256 229 237 240 239 238 238 239 247 255 259 244 243 236 220 214 206 216 204 196 198 222 232 243 251 270 264 244 239 239 244 258 240 238 261 246 256 273 259 257 266 252 252
298 276 265 248 247 246 245 243 239 238 238 246 253 236 245 245 223 220 221 223 219 229 231 255 251 255 265 263 274 270 261 261 259 249 239 240 245 255 273 272 252 249 254 257 254
292 277 274 258 252 252 250 244 243 233 237 247 254 230 234 236 220 226 211 225 227 234 243 248 244 240 239 258 264 273 272 263 250 254 258 249 261 268 265 257 270 257 266 260 267
283 271 284 265 269 265 258 249 246 240 233 240 243 226 225 230 225 221 236 217 231 232 244 245 242 248 253 260 271 271 267 267 264 255 252 261 260 259 260 254 251 271 282 272 265
287 284 276 272 266 261 256 238 246 233 239 250 228 233 229 226 221 223 226 230 231 228 231 242 245 243 259 264 264 268 267 264 269 264 269 271 259 258 255 253 258 271 274 277 270
293 284 278 270 270 253 242 256 245 252 237 248 241 231 230 226 224 225 227 234 228 226 230 234 241 259 259 266 278 274 277 267 266 269 266 267 265 253 253 253 259 263 258 259 265